Location: Country View Observatory
(32.9873°N, 83.6444°W)
Time: 10:53:57
(UTC-04:00)

Envisat - Visible Passes

Search period start: 17 September 2019 00:00
Search period end: 27 September 2019 00:00
Orbit: 764 x 766 km, 98.1° (Epoch: 17 September)

Date Brightness Start Highest point End Pass type
(mag) Time Alt. Az. Time Alt. Az. Time Alt. Az.
17 Sep 4.9 20:33:42 10° SSW 20:38:13 32° W 20:42:45 10° NW visible
18 Sep 3.2 19:56:19 10° S 20:01:23 80° WSW 20:06:28 10° NNW visible
19 Sep 5.9 21:00:34 10° SW 21:03:52 17° W 21:07:11 10° NW visible
20 Sep 4.4 20:22:08 10° S 20:26:55 42° W 20:31:43 10° NNW visible
22 Sep 5.5 20:48:36 10° SSW 20:52:32 23° W 20:56:29 10° NW visible
23 Sep 3.8 20:10:41 10° S 20:15:38 55° W 20:20:37 10° NNW visible
24 Sep 6.2 21:16:29 10° WSW 21:18:15 12° W 21:20:01 10° WNW visible
25 Sep 5.1 20:36:51 10° SSW 20:41:13 29° W 20:45:37 10° NW visible
26 Sep 3.3 19:59:20 10° S 20:04:22 72° WSW 20:09:27 10° NNW visible
